�������l�o���
Date,Time,MP-1(��Sv/h),MP-2(��Sv/h),MP-3(��Sv/h),MP-4(��Sv/h),MP-5(��Sv/h),MP-6(��Sv/h),MP-7(��Sv/h),MP-8(��Sv/h),����,����(m/s),���J
2019/10/25,00:00,0.710,1.008,0.667,1.235,0.867,0.409,0.710,0.675,���k��,7.8,��
2019/10/25,00:10,0.710,1.007,0.666,1.237,0.867,0.409,0.709,0.675,�k��,6.4,��
2019/10/25,00:20,0.711,1.007,0.667,1.237,0.867,0.410,0.711,0.673,���k��,8.8,��
2019/10/25,00:30,0.711,1.006,0.667,1.237,0.866,0.409,0.708,0.674,���k��,8.0,��
2019/10/25,00:40,0.710,1.006,0.666,1.235,0.866,0.409,0.710,0.673,���k��,8.9,��
2019/10/25,00:50,0.709,1.007,0.665,1.234,0.868,0.408,0.709,0.676,���k��,10.5,��
2019/10/25,01:00,0.709,1.006,0.665,1.236,0.868,0.409,0.710,0.675,���k��,8.2,��
2019/10/25,01:10,0.710,1.006,0.668,1.235,0.868,0.410,0.709,0.674,���k��,8.8,��
2019/10/25,01:20,0.709,1.005,0.667,1.236,0.869,0.409,0.710,0.674,���k��,9.3,��
2019/10/25,01:30,0.709,1.006,0.667,1.235,0.867,0.410,0.709,0.673,���k��,9.1,��
2019/10/25,01:40,0.708,1.008,0.667,1.236,0.867,0.408,0.710,0.674,���k��,9.4,��
2019/10/25,01:50,0.708,1.008,0.666,1.236,0.866,0.409,0.710,0.674,���k��,10.7,��
2019/10/25,02:00,0.712,1.008,0.668,1.235,0.866,0.409,0.711,0.675,���k��,9.4,��
2019/10/25,02:10,0.709,1.008,0.668,1.237,0.867,0.411,0.710,0.675,�k��,10.4,�L
2019/10/25,02:20,0.709,1.007,0.666,1.238,0.869,0.409,0.710,0.673,���k��,9.7,��
2019/10/25,02:30,0.710,1.008,0.667,1.234,0.869,0.410,0.711,0.674,���k��,11.9,��
2019/10/25,02:40,0.711,1.005,0.667,1.235,0.867,0.410,0.709,0.675,���k��,11.3,��
2019/10/25,02:50,0.711,1.007,0.669,1.236,0.869,0.410,0.711,0.675,���k��,11.3,��
2019/10/25,03:00,0.711,1.008,0.666,1.236,0.866,0.410,0.710,0.675,�k��,11.2,��
2019/10/25,03:10,0.712,1.006,0.668,1.237,0.868,0.408,0.710,0.674,���k��,12.7,��
2019/10/25,03:20,0.710,1.007,0.668,1.237,0.869,0.409,0.710,0.674,���k��,11.0,��
2019/10/25,03:30,0.710,1.007,0.666,1.239,0.868,0.409,0.711,0.673,���k��,12.5,��
2019/10/25,03:40,0.711,1.007,0.670,1.235,0.869,0.410,0.711,0.673,���k��,11.9,��
2019/10/25,03:50,0.710,1.008,0.668,1.236,0.867,0.410,0.711,0.674,���k��,13.0,��
2019/10/25,04:00,0.712,1.006,0.668,1.237,0.870,0.409,0.710,0.675,�k��,11.3,��
2019/10/25,04:10,0.710,1.008,0.669,1.238,0.867,0.411,0.709,0.674,�k��,10.1,��
2019/10/25,04:20,0.712,1.007,0.669,1.238,0.869,0.410,0.711,0.674,���k��,12.3,��
2019/10/25,04:30,0.710,1.007,0.668,1.239,0.869,0.410,0.711,0.675,���k��,10.2,��
2019/10/25,04:40,0.710,1.009,0.668,1.237,0.869,0.410,0.710,0.677,���k��,11.8,��
2019/10/25,04:50,0.712,1.008,0.669,1.240,0.872,0.409,0.710,0.674,���k��,11.9,��
2019/10/25,05:00,0.710,1.009,0.666,1.238,0.870,0.410,0.708,0.674,�k��,10.8,��
2019/10/25,05:10,0.713,1.010,0.668,1.238,0.869,0.411,0.712,0.673,�k��,10.4,��
2019/10/25,05:20,0.712,1.010,0.668,1.239,0.869,0.411,0.710,0.674,�k��,9.9,��
2019/10/25,05:30,0.712,1.008,0.668,1.237,0.870,0.411,0.709,0.675,���k��,12.1,��
2019/10/25,05:40,0.710,1.010,0.668,1.238,0.869,0.411,0.710,0.675,�k��,12.1,��
2019/10/25,05:50,0.711,1.012,0.668,1.236,0.869,0.412,0.709,0.675,�k��,9.9,��
2019/10/25,06:00,0.713,1.010,0.668,1.238,0.868,0.410,0.711,0.675,���k��,11.0,��
2019/10/25,06:10,0.712,1.009,0.670,1.239,0.869,0.411,0.709,0.676,�k��,10.1,��
2019/10/25,06:20,0.712,1.008,0.668,1.237,0.871,0.411,0.711,0.673,�k��,10.2,��
2019/10/25,06:30,0.712,1.009,0.668,1.240,0.868,0.410,0.711,0.675,�k��,11.1,��
2019/10/25,06:40,0.710,1.008,0.668,1.239,0.868,0.410,0.711,0.676,���k��,12.7,��
2019/10/25,06:50,0.713,1.009,0.668,1.236,0.870,0.410,0.710,0.673,�k��,11.1,��
2019/10/25,07:00,0.712,1.007,0.668,1.239,0.869,0.411,0.709,0.674,�k��,12.7,��
2019/10/25,07:10,0.711,1.007,0.668,1.239,0.871,0.411,0.710,0.674,�k��,11.9,��
2019/10/25,07:20,0.712,1.008,0.666,1.237,0.870,0.410,0.711,0.676,�k��,11.1,��
2019/10/25,07:30,0.712,1.008,0.670,1.239,0.871,0.410,0.710,0.674,�k��,12.9,��
2019/10/25,07:40,0.712,1.008,0.668,1.240,0.868,0.409,0.711,0.674,�k��,12.1,��
2019/10/25,07:50,0.714,1.010,0.668,1.239,0.869,0.410,0.710,0.677,�k��,12.5,��
2019/10/25,08:00,0.713,1.009,0.667,1.240,0.870,0.410,0.711,0.675,�k��,11.6,��
2019/10/25,08:10,0.713,1.012,0.668,1.239,0.871,0.410,0.712,0.674,�k��,14.1,��
2019/10/25,08:20,0.713,1.008,0.666,1.239,0.870,0.410,0.710,0.674,�k��,15.2,��
2019/10/25,08:30,0.712,1.009,0.665,1.241,0.871,0.409,0.711,0.675,�k��,12.7,��
2019/10/25,08:40,0.711,1.005,0.666,1.241,0.870,0.409,0.711,0.675,�k��,11.8,��
2019/10/25,08:50,0.711,1.008,0.666,1.239,0.870,0.409,0.713,0.674,�k��,12.7,��
2019/10/25,09:00,0.712,1.007,0.666,1.241,0.870,0.409,0.709,0.675,�k��,11.0,��
2019/10/25,09:10,0.712,1.009,0.664,1.240,0.871,0.409,0.713,0.675,�k��,11.9,��
2019/10/25,09:20,0.712,1.007,0.664,1.239,0.872,0.409,0.711,0.674,�k��,11.0,��
2019/10/25,09:30,0.712,1.003,0.666,1.239,0.872,0.409,0.711,0.675,�k��,11.8,��
2019/10/25,09:40,0.711,1.005,0.664,1.241,0.869,0.410,0.712,0.673,�k��,11.8,��
2019/10/25,09:50,0.711,1.008,0.662,1.241,0.873,0.409,0.711,0.676,�k��,12.2,��
2019/10/25,10:00,0.712,1.007,0.664,1.241,0.872,0.411,0.710,0.673,�k��,12.4,��
2019/10/25,10:10,0.713,1.006,0.665,1.240,0.872,0.413,0.712,0.675,�k��,12.3,��
2019/10/25,10:20,0.713,1.009,0.667,1.240,0.873,0.411,0.712,0.676,�k��,11.5,��
2019/10/25,10:30,0.713,1.011,0.667,1.242,0.872,0.410,0.710,0.674,�k��,11.6,��
2019/10/25,10:40,0.712,1.009,0.666,1.242,0.870,0.410,0.712,0.675,�k��,12.6,��
2019/10/25,10:50,0.714,1.008,0.666,1.243,0.873,0.411,0.711,0.674,�k��,12.2,��
2019/10/25,11:00,0.712,1.005,0.665,1.242,0.871,0.410,0.712,0.676,�k��,11.5,�L
2019/10/25,11:10,0.714,1.008,0.667,1.242,0.872,0.410,0.713,0.675,�k��,11.1,�L
2019/10/25,11:20,0.713,1.007,0.667,1.242,0.873,0.410,0.712,0.675,�k��,10.5,�L
2019/10/25,11:30,0.712,1.008,0.665,1.242,0.871,0.411,0.712,0.675,�k��,11.1,�L
2019/10/25,11:40,0.714,1.007,0.666,1.242,0.873,0.412,0.713,0.675,�k��,11.6,�L
2019/10/25,11:50,0.714,1.006,0.667,1.241,0.873,0.410,0.712,0.674,�k��,11.2,�L
2019/10/25,12:00,0.715,1.007,0.670,1.241,0.873,0.411,0.713,0.674,�k��,11.5,�L
2019/10/25,12:10,0.712,1.003,0.667,1.237,0.869,0.410,0.711,0.672,�k��,11.3,�L
2019/10/25,12:20,0.711,0.997,0.667,1.236,0.866,0.409,0.708,0.671,�k��,10.4,�L
2019/10/25,12:30,0.707,0.992,0.663,1.232,0.858,0.410,0.707,0.671,�k��,10.8,�L
2019/10/25,12:40,0.703,0.985,0.661,1.224,0.853,0.410,0.704,0.668,�k��,9.4,�L
2019/10/25,12:50,0.698,0.974,0.656,1.212,0.846,0.408,0.700,0.665,-,CALM,�L
2019/10/25,13:00,0.694,0.967,0.654,1.198,0.840,0.407,0.698,0.665,-,CALM,�L
2019/10/25,13:10,0.691,0.962,0.655,1.194,0.836,0.406,0.695,0.662,��,7.5,�L
2019/10/25,13:20,0.691,0.955,0.650,1.187,0.837,0.407,0.695,0.662,-,CALM,�L
2019/10/25,13:30,0.690,0.955,0.651,1.183,0.832,0.409,0.692,0.661,-,CALM,�L
2019/10/25,13:40,0.688,0.950,0.646,1.176,0.829,0.410,0.690,0.658,-,CALM,�L
2019/10/25,13:50,0.688,0.950,0.643,1.173,0.824,0.409,0.690,0.657,-,CALM,�L
2019/10/25,14:00,0.686,0.946,0.637,1.169,0.822,0.407,0.689,0.656,-,CALM,�L
2019/10/25,14:10,0.687,0.946,0.633,1.168,0.818,0.408,0.688,0.655,-,CALM,�L
2019/10/25,14:20,0.685,0.944,0.630,1.165,0.817,0.408,0.687,0.656,-,CALM,�L
2019/10/25,14:30,0.685,0.943,0.627,1.163,0.813,0.407,0.685,0.653,-,CALM,�L
2019/10/25,14:40,0.688,0.946,0.629,1.165,0.812,0.409,0.688,0.656,-,CALM,�L
2019/10/25,14:50,0.687,0.944,0.628,1.162,0.808,0.409,0.684,0.653,-,CALM,�L
2019/10/25,15:00,0.685,0.942,0.620,1.160,0.806,0.408,0.684,0.653,-,CALM,�L
2019/10/25,15:10,0.686,0.942,0.614,1.158,0.803,0.410,0.687,0.653,-,CALM,�L
2019/10/25,15:20,0.688,0.941,0.611,1.162,0.803,0.410,0.685,0.654,-,CALM,�L
2019/10/25,15:30,0.683,0.936,0.602,1.155,0.798,0.409,0.682,0.652,-,CALM,�L
2019/10/25,15:40,0.681,0.937,0.592,1.151,0.794,0.407,0.682,0.650,-,CALM,�L
2019/10/25,15:50,0.680,0.929,0.583,1.147,0.785,0.405,0.681,0.648,-,CALM,�L
2019/10/25,16:00,0.681,0.930,0.575,1.143,0.782,0.402,0.680,0.647,-,CALM,�L
2019/10/25,16:10,0.684,0.930,0.567,1.143,0.777,0.404,0.680,0.649,-,CALM,�L
2019/10/25,16:20,0.686,0.930,0.568,1.142,0.774,0.405,0.681,0.649,-,CALM,�L
2019/10/25,16:30,0.690,0.930,0.566,1.140,0.771,0.401,0.681,0.651,-,CALM,�L
2019/10/25,16:40,0.693,0.934,0.569,1.142,0.770,0.404,0.681,0.652,-,CALM,�L
2019/10/25,16:50,0.695,0.933,0.567,1.141,0.767,0.400,0.680,0.652,-,CALM,�L
2019/10/25,17:00,0.709,0.947,0.571,1.153,0.773,0.409,0.683,0.656,�k�k��,7.7,�L
2019/10/25,17:10,0.712,0.952,0.581,1.160,0.774,0.422,0.685,0.660,-,CALM,�L
2019/10/25,17:20,0.710,0.950,0.589,1.163,0.778,0.425,0.685,0.660,�k�k��,10.2,�L
2019/10/25,17:30,0.709,0.951,0.596,1.161,0.780,0.425,0.685,0.659,�k��,11.5,�L
2019/10/25,17:40,0.706,0.948,0.600,1.160,0.781,0.424,0.684,0.660,�k��,13.0,�L
2019/10/25,17:50,0.709,0.954,0.606,1.167,0.786,0.424,0.686,0.662,���k��,13.5,�L
2019/10/25,18:00,0.709,0.956,0.608,1.169,0.788,0.423,0.685,0.662,�k��,13.3,�L
2019/10/25,18:10,0.706,0.955,0.612,1.173,0.787,0.420,0.688,0.663,�k��,14.9,�L
2019/10/25,18:20,0.702,0.954,0.615,1.172,0.788,0.415,0.687,0.660,�k��,12.1,�L
2019/10/25,18:30,0.703,0.952,0.619,1.173,0.788,0.414,0.689,0.662,-,CALM,�L
2019/10/25,18:40,0.699,0.949,0.619,1.175,0.788,0.410,0.687,0.660,-,CALM,�L
2019/10/25,18:50,0.697,0.945,0.619,1.170,0.789,0.409,0.686,0.659,-,CALM,�L
2019/10/25,19:00,0.695,0.943,0.619,1.168,0.788,0.408,0.684,0.658,-,CALM,�L
2019/10/25,19:10,0.692,0.935,0.617,1.164,0.786,0.408,0.685,0.656,���k��,14.1,�L
2019/10/25,19:20,0.688,0.926,0.613,1.154,0.781,0.406,0.680,0.653,-,CALM,�L
2019/10/25,19:30,0.685,0.925,0.607,1.145,0.781,0.407,0.678,0.652,-,CALM,�L
2019/10/25,19:40,0.686,0.924,0.601,1.141,0.781,0.410,0.678,0.653,-,CALM,�L
2019/10/25,19:50,0.684,0.927,0.595,1.137,0.779,0.410,0.678,0.649,-,CALM,�L
2019/10/25,20:00,0.686,0.928,0.589,1.139,0.775,0.409,0.677,0.650,-,CALM,�L
2019/10/25,20:10,0.680,0.920,0.581,1.128,0.772,0.406,0.675,0.647,-,CALM,�L
2019/10/25,20:20,0.681,0.917,0.571,1.124,0.767,0.402,0.674,0.647,-,CALM,�L
2019/10/25,20:30,0.679,0.918,0.562,1.125,0.767,0.405,0.675,0.647,-,CALM,�L
2019/10/25,20:40,0.682,0.924,0.560,1.126,0.768,0.405,0.674,0.649,-,CALM,�L
2019/10/25,20:50,0.683,0.926,0.561,1.127,0.762,0.403,0.674,0.648,-,CALM,�L
2019/10/25,21:00,0.682,0.921,0.560,1.121,0.752,0.393,0.671,0.647,�k�k��,12.7,�L
2019/10/25,21:10,0.674,0.905,0.539,1.092,0.729,0.341,0.665,0.639,�k��,11.8,�L
2019/10/25,21:20,0.663,0.902,0.525,1.085,0.724,0.313,0.661,0.636,�k,6.9,�L
2019/10/25,21:30,0.664,0.901,0.519,1.084,0.720,0.321,0.661,0.636,�k�k��,7.5,�L
2019/10/25,21:40,0.661,0.894,0.514,1.077,0.711,0.322,0.661,0.639,�k��,8.8,�L
2019/10/25,21:50,0.657,0.883,0.503,1.057,0.702,0.305,0.655,0.634,-,CALM,�L
2019/10/25,22:00,0.669,0.890,0.499,1.060,0.695,0.282,0.656,0.638,-,CALM,�L
2019/10/25,22:10,0.676,0.904,0.512,1.086,0.705,0.292,0.659,0.643,-,CALM,�L
2019/10/25,22:20,0.680,0.911,0.524,1.100,0.715,0.316,0.663,0.646,�k�k��,6.4,�L
2019/10/25,22:30,0.689,0.920,0.537,1.120,0.726,0.363,0.668,0.649,���k��,8.2,�L
2019/10/25,22:40,0.694,0.928,0.549,1.130,0.734,0.392,0.670,0.652,�k��,8.3,�L
2019/10/25,22:50,0.693,0.931,0.560,1.136,0.737,0.397,0.672,0.653,���k��,7.2,�L
2019/10/25,23:00,0.692,0.932,0.568,1.142,0.741,0.400,0.672,0.653,�k�k��,3.0,�L
2019/10/25,23:10,0.692,0.934,0.575,1.149,0.745,0.401,0.676,0.656,�k�k��,5.5,�L
2019/10/25,23:20,0.693,0.937,0.580,1.149,0.748,0.401,0.674,0.655,�k�k��,6.6,�L
2019/10/25,23:30,0.694,0.938,0.586,1.151,0.750,0.400,0.676,0.656,�k�k��,8.2,�L
2019/10/25,23:40,0.692,0.935,0.588,1.151,0.748,0.398,0.675,0.655,�k,5.5,�L
2019/10/25,23:50,0.684,0.915,0.582,1.136,0.742,0.395,0.673,0.654,�k�k��,10.5,�L
